OpenBCM V1.13 (Linux)

Packet Radio Mailbox

DB0FHN

[JN59NK Nuernberg]

 Login: GUEST





  
LU9DCE > KEP      10.06.19 20:33l 242 Lines 12012 Bytes #999 (0) @ WW
BID : 26486_LU9DCE
Read: GUEST DJ6UX DF7EAV
Subj: TLE 10 06
Path: DB0FHN<DB0PM<OE5XBL<OE2XZR<OE5XBR<OE1XAB<HG8LXL<XE1FH<LW2DQC<LU9DCE
Sent: 190610/1826Z 26486@LU9DCE.TOR.BA.ARG.SOAM LinBPQ6.0.18

            __    _  _  ___  ____   ___  ____    ____  ____  ____
           (  )  / )( \/ _ \(    \ / __)(  __)  (  _ \(  _ \/ ___)
           / (_/\) \/ (\__  )) D (( (__  ) _)    ) _ ( ) _ (\___ \
           \____/\____/(___/(____/ \___)(____)  (____/(____/(____/
               ESTACION DE PACKET RADIO - BUENOS AIRES (GF05OM)
                   BOLETINES INFORMATIVOS PROGRAMADOS (BIP)
                  SLACKWARE LINUX - HELLOCODELINUX@GMAIL.COM

+----------------------------------------------------------------------------+
OSCAR 7
1  7530U 74089B   19160.92876267 -.00000025 +00000-0 +12558-3 0  9999
2  7530 101.7430 128.6796 0012298 006.2905 061.7238 12.53638451039182
OSCAR 11 (UoSAT 2)
1 14781U 84021B   19160.86182098 +.00000061 +00000-0 +13629-4 0  9997
2 14781 097.6111 185.9980 0008335 359.6517 000.4690 14.83089088876451
OSCAR 19 (LUSAT)
1 20442U 90005G   19161.08039500  .00000001  00000-0  16702-4 0  9990
2 20442  98.6481 103.0950 0011867 169.2889 190.8550 14.32926477535145
EYESAT A
1 22825U 93061C   19160.96399580 +.00000001 +00000-0 +18315-4 0  9997
2 22825 098.9026 149.4021 0008967 031.0700 329.1010 14.30060062340439
ITAMSAT
1 22826U 93061D   19160.96769531 +.00000004 +00000-0 +19400-4 0  9994
2 22826 098.8966 149.3983 0009281 020.2433 339.9115 14.30393634340654
RADIO ROSTO
1 23439U 94085A   19160.91312743 -.00000032 +00000-0 +28623-3 0  9994
2 23439 064.8145 130.3201 0146242 114.9342 246.6857 11.27568099006905
JAS 2
1 24278U 96046B   19160.89793816 +.00000003 +00000-0 +42268-4 0  9995
2 24278 098.5358 315.5020 0349269 262.8062 093.3255 13.53091688126367
TECHSAT 1B
1 25397U 98043D   19160.90467351 -.00000007  00000-0  16241-4 0  9998
2 25397  98.6883 101.1554 0002387  74.5883 285.5559 14.23666350 86629
ISS (ZARYA)
1 25544U 98067A   19161.23866414  .00001034  00000-0  25191-4 0  9992
2 25544  51.6452  35.7838 0007986  32.5664 120.5149 15.51186426174176
PCSAT
1 26931U 01043C   19161.04105573 -.00000027  00000-0  21416-4 0  9990
2 26931  67.0522  26.0044 0006567 279.6388  80.3971 14.30544050923736
SAUDISAT 1C
1 27607U 02058C   19160.93928606 -.00000037 +00000-0 +15684-4 0  9996
2 27607 064.5558 076.3557 0081631 258.2192 100.9745 14.75551160885617
CUTE-1
1 27844U 03031E   19160.92905614 +.00000039 +00000-0 +37052-4 0  9998
2 27844 098.6836 169.2738 0010930 060.5407 299.6860 14.22180124827000
CUBESAT XI 4
1 27848U 03031J   19160.91869866 +.00000032 +00000-0 +34409-4 0  9995
2 27848 098.6914 169.7618 0010922 070.6293 289.6064 14.21774903826860
MOZHAYETS 4
1 27939U 03042A   19161.11165501  .00000061  00000-0  19585-4 0  9996
2 27939  98.0390 297.0954 0014305  94.6058 265.6760 14.66783356839283
CUBESAT XI 5
1 28895U 05043F   19161.16817362  .00000098  00000-0  27674-4 0  9993
2 28895  97.9580 304.1919 0017221  23.4533 336.7452 14.63666339726239
CUTE-1.7+APD II
1 32785U 08021C   19160.81086166 +.00000183 +00000-0 +25342-4 0  9991
2 32785 097.5491 160.9443 0011621 295.8237 064.1781 14.88307205602290
DELFI C3
1 32789U 08021G   19161.11866966  .00000736  00000-0  53193-4 0  9992
2 32789  97.4647 211.0431 0013235 148.1024 212.1007 15.06934970605675
SEEDS
1 32791U 08021J   19160.57579263 +.00000313 +00000-0 +37150-4 0  9991
2 32791 097.5276 166.6847 0011735 268.4483 091.5392 14.90815695602678
YUBELEINY
1 32953U 08025A   19161.03281024  .00000021  00000-0  75656-4 0  9991
2 32953  82.4999 150.1500 0019744 144.1853 216.0553 12.43089980501235
PRISM (HITOMI)
1 33493U 09002B   19160.83719128 +.00000272 +00000-0 +29441-4 0  9994
2 33493 098.1219 081.4561 0014364 208.9746 151.0679 14.96642738563815
KKS-1 (KISEKI)
1 33499U 09002H   19160.92635941 +.00000066 +00000-0 +17813-4 0  9991
2 33499 098.3509 359.3548 0008122 229.3989 130.6513 14.75439761557504
SWISSCUBE
1 35932U 09051B   19160.87097205 +.00000116 +00000-0 +37247-4 0  9997
2 35932 098.5872 326.5863 0007545 183.2529 176.8620 14.56282510515451
BEESAT
1 35933U 09051C   19160.87448278 +.00000095 +00000-0 +32487-4 0  9995
2 35933 098.5900 328.3441 0005483 193.8977 166.2069 14.56371931515523
ITUPSAT 1
1 35935U 09051E   19160.72084170 +.00000077 +00000-0 +28869-4 0  9997
2 35935 098.6010 328.4246 0007809 194.9214 165.1753 14.55532269515308
XIWANG-1 (HOPE-1)
1 36122U 09072B   19160.76719329 -.00000054  00000-0 -31859-4 0  9994
2 36122 100.0724 163.5662 0007700  12.2712 347.8569 13.16349528455703
TISAT 1
1 36799U 10035E   19161.09278644  .00000410  00000-0  47477-4 0  9999
2 36799  98.1548 312.9606 0013650 112.2086 248.0581 14.91097913483482
JUGNU
1 37839U 11058B   19161.06731455  .00000303  00000-0  19646-4 0  9990
2 37839  19.9627  27.0744 0018910 231.8973 293.9955 14.12652011396038
SRMSAT
1 37841U 11058D   19161.09502177  .00000289  00000-0  13541-4 0  9994
2 37841  19.9723  83.5012 0012017 102.5755  17.3348 14.10633193395476
M-CUBED/EXP-1 PRIME
1 37855U 11061F   19160.62732791  .00001134  00000-0  64394-4 0  9990
2 37855 101.7161  51.5740 0173758 103.6549 258.4077 15.05392075415413
HORYU 2
1 38340U 12025D   19160.89659050 +.00000142 +00000-0 +28792-4 0  9996
2 38340 098.3295 199.2234 0012324 146.8348 213.3635 14.75716217369453
STRAND 1
1 39090U 13009E   19160.86166814 +.00000020 +00000-0 +22231-4 0  9997
2 39090 098.4893 006.9687 0008389 321.8106 038.2484 14.35086132329106
SOMP
1 39134U 13015E   19161.07067307  .00001011  00000-0  55574-4 0  9991
2 39134  64.8642  48.3685 0029569 304.7102  55.1241 15.20137445339289
BEESAT 3
1 39135U 13015F   19161.10936799  .00000975  00000-0  58170-4 0  9999
2 39135  64.8691  66.4195 0019732 323.7321  36.2466 15.17447553338947
BEESAT 2
1 39136U 13015G   19161.14313159  .00000737  00000-0  47102-4 0  9992
2 39136  64.8698  70.1072 0018921 302.7339  57.1962 15.16876752338877
CUBEBUG 1
1 39153U 13018D   19160.90980002  .00000152  00000-0  26752-4 0  9993
2 39153  97.9777 259.0842 0015994 223.3126 136.6830 14.80563761330516
ZACUBE
1 39417U 13066B   19160.58472537 +.00000180 +00000-0 +28853-4 0  9997
2 39417 097.5626 174.5982 0060420 064.6236 296.1216 14.81110751299697
TRITON 1
1 39427U 13066M   19160.86607354 +.00000182 +00000-0 +37018-4 0  9991
2 39427 097.6752 138.7902 0113386 193.0107 166.8168 14.67836223296854
GOMX 1
1 39430U 13066Q   19160.98267788  .00000142  00000-0  35213-4 0  9992
2 39430  97.7461 118.1082 0149886 281.9578  76.4864 14.59248861295337
HUMSAT D
1 39433U 13066T   19161.09747218  .00000321  00000-0  36691-4 0  9999
2 39433  97.5541 208.9541 0029891 332.1197  27.8419 14.92183872301795
CUBEBUG 2
1 39440U 13066AA  19160.86953255 +.00000188 +00000-0 +32920-4 0  9993
2 39440 097.6017 159.8280 0081755 113.1952 247.7896 14.75849226297473
FUNCUBE 1
1 39444U 13066AE  19160.59031421 +.00000224 +00000-0 +33770-4 0  9994
2 39444 097.5607 176.5400 0059485 058.6926 302.0093 14.81928318297998
UWE-3
1 39446U 13066AG  19161.02414675  .00000195  00000-0  32389-4 0  9993
2 39446  97.5810 166.9851 0071675  88.4075 272.5346 14.78383683297987
SPROUT
1 39770U 14029E   19161.15478676  .00000549  00000-0  66901-4 0  9998
2 39770  97.8835 264.5028 0010228 110.9688 249.2626 14.87328766273567
UNISAT 6
1 40012U 14033C   19160.57917210  .00000146  00000-0  29006-4 0  9999
2 40012  97.7589  27.5834 0059483 126.3597 234.3122 14.73973527267342
DUCHIFAT 1
1 40021U 14033M   19160.75039380 +.00000359 +00000-0 +42478-4 0  9996
2 40021 097.9240 085.3144 0014443 080.3163 279.9686 14.90620301270217
QB50P1
1 40025U 14033R   19160.76221746 +.00000202 +00000-0 +27482-4 0  9995
2 40025 097.9064 080.4605 0013995 088.8105 271.4715 14.88936868269485
CHUBUSAT 1
1 40300U 14070C   19161.10866326  .00000693  00000-0  33102-4 0  9990
2 40300  97.3265 235.5063 0021546  85.0565 336.1207 15.22073075254715
NUDT-PHONESAT
1 40900U 15049B   19161.02884064  .00001601  00000-0  71545-4 0  9996
2 40900  97.4370 170.4499 0011816 209.1185 209.2861 15.22742494206345
ZDPS 2A
1 40901U 15049C   19161.03873416  .00000429  00000-0  24621-4 0  9997
2 40901  97.4591 166.9874 0012001 229.6237 215.8337 15.17704210205922
ZDPS 2B
1 40902U 15049D   19161.20309979  .00001051  00000-0  55705-4 0  9994
2 40902  97.4536 164.6737 0012034 225.7130 264.9261 15.17516341205927
XW-2A
1 40903U 15049E   19161.14203229  .00001672  00000-0  41417-4 0  9993
2 40903  97.3377 203.8571 0013664 169.0832 255.4231 15.41807612208938
KAITUO 1A
1 40904U 15049F   19161.23211806  .00000349  00000-0  22012-4 0  9994
2 40904  97.4659 163.3859 0012998 234.5906 311.3627 15.15352701205710
OBJECT G
1 40905U 15049G   19161.02361073  .00000001  00000-0  36463-5 0  9995
2 40905  97.4698 160.7483 0014334 229.5406 215.3701 15.14278926205567
XW-2C
1 40906U 15049H   19161.08211071  .00000430  00000-0  26046-4 0  9995
2 40906  97.4665 163.3033 0013365 225.7148 207.3325 15.15658227205690
XW-2D
1 40907U 15049J   19161.20338531  .00000701  00000-0  40096-4 0  9993
2 40907  97.4647 163.1007 0012912 221.4935 269.2225 15.15847001205724
LILACSAT 2
1 40908U 15049K   19161.20592295  .00000522  00000-0  32505-4 0  9990
2 40908  97.4777 161.9752 0014550 229.0705 260.2892 15.13794142205525
XW-2F
1 40910U 15049M   19160.96209215  .00000547  00000-0  30828-4 0  9995
2 40910  97.4620 164.8217 0013550 215.6678 201.9025 15.17267406205692
XW-2B
1 40911U 15049N   19161.02571550  .00000273  00000-0  17777-4 0  9992
2 40911  97.4673 163.5705 0012753 223.2250 202.5742 15.15774035205595
KAITUO 1B
1 40912U 15049P   19161.00542413  .00000995  00000-0  49897-4 0  9996
2 40912  97.4493 168.4726 0014175 196.8053 215.7271 15.19577150205999
TIANWANG 1C (TW-1C)
1 40926U 15051B   19161.08896527  .00010127  00000-0  14920-3 0  9996
2 40926  97.1354 207.2740 0009326  54.4332 359.5815 15.55555073208822
